Time,TemperatureF,DewpointF,PressureIn,WindDirection,WindDirectionDegrees,WindSpeedMPH,WindSpeedGustMPH,Humidity,HourlyPrecipIn,Conditions,Clouds,dailyrainin,SoftwareType,DateUTC
2013-06-26 00:00:00,71.8,69.7,27.99,NE,45,0.0,0.0,93,0.00,,---,0.00,VWS V14.01,2013-06-26 04:00:00,
2013-06-26 00:01:00,71.8,69.7,27.99,NE,45,0.0,0.0,93,0.00,,---,0.00,VWS V14.01,2013-06-26 04:01:00,
2013-06-26 00:07:00,71.6,69.5,27.99,NE,45,0.0,0.0,93,0.00,,---,0.00,VWS V14.01,2013-06-26 04:07:00,
2013-06-26 00:12:00,71.6,69.5,27.99,NE,45,0.0,0.0,93,0.00,,---,0.00,VWS V14.01,2013-06-26 04:12:00,
2013-06-26 00:17:00,71.4,69.3,27.99,NE,45,0.0,0.0,93,0.00,,---,0.00,VWS V14.01,2013-06-26 04:17:00,
2013-06-26 00:22:00,71.4,69.3,27.99,NE,45,0.0,0.0,93,0.00,,---,0.00,VWS V14.01,2013-06-26 04:22:00,
2013-06-26 00:27:00,71.2,69.1,27.99,NE,45,0.0,0.0,93,0.00,,---,0.00,VWS V14.01,2013-06-26 04:27:00,
2013-06-26 00:32:00,71.1,68.9,27.99,NE,45,0.0,0.0,93,0.00,,---,0.00,VWS V14.01,2013-06-26 04:32:00,
2013-06-26 00:37:00,71.1,68.9,27.99,NE,45,0.0,0.0,93,0.00,,---,0.00,VWS V14.01,2013-06-26 04:37:00,
2013-06-26 00:42:00,70.9,68.8,27.99,NE,45,0.0,0.0,93,0.00,,---,0.00,VWS V14.01,2013-06-26 04:42:00,
2013-06-26 00:47:00,70.9,69.1,27.99,NE,45,0.0,0.0,94,0.00,,---,0.00,VWS V14.01,2013-06-26 04:47:00,
2013-06-26 00:52:00,70.9,69.1,27.99,NE,45,0.0,0.0,94,0.00,,---,0.00,VWS V14.01,2013-06-26 04:52:00,
2013-06-26 00:57:00,70.9,69.1,27.99,NE,45,0.0,0.0,94,0.00,,---,0.00,VWS V14.01,2013-06-26 04:57:00,
2013-06-26 01:02:00,70.7,68.9,27.99,NE,45,0.0,0.0,94,0.00,,---,0.00,VWS V14.01,2013-06-26 05:02:00,
2013-06-26 01:07:00,70.7,68.9,27.99,NE,45,0.0,0.0,94,0.00,,---,0.00,VWS V14.01,2013-06-26 05:07:00,
2013-06-26 01:12:00,70.5,68.7,27.99,NE,45,0.0,0.0,94,0.00,,---,0.00,VWS V14.01,2013-06-26 05:12:00,
2013-06-26 01:17:00,70.5,68.7,27.99,NE,45,0.0,0.0,94,0.00,,---,0.00,VWS V14.01,2013-06-26 05:17:00,
2013-06-26 01:22:00,70.5,68.7,27.99,NE,45,0.0,0.0,94,0.00,,---,0.00,VWS V14.01,2013-06-26 05:22:00,
2013-06-26 01:27:00,70.3,68.5,27.99,NE,45,0.0,0.0,94,0.00,,---,0.00,VWS V14.01,2013-06-26 05:27:00,
2013-06-26 01:32:00,70.3,68.5,27.99,NE,45,0.0,0.0,94,0.00,,---,0.00,VWS V14.01,2013-06-26 05:32:00,
2013-06-26 01:37:00,70.2,68.4,27.99,NE,45,0.0,0.0,94,0.00,,---,0.00,VWS V14.01,2013-06-26 05:37:00,
2013-06-26 01:42:00,70.2,68.4,27.99,NE,45,0.0,0.0,94,0.00,,---,0.00,VWS V14.01,2013-06-26 05:42:00,
2013-06-26 01:47:00,70.2,68.4,27.99,NE,45,0.0,0.0,94,0.00,,---,0.00,VWS V14.01,2013-06-26 05:47:00,
2013-06-26 01:53:00,70.0,68.2,27.99,NE,45,0.0,0.0,94,0.00,,---,0.00,VWS V14.01,2013-06-26 05:53:00,
2013-06-26 01:58:00,70.0,68.2,27.99,NE,45,0.0,0.0,94,0.00,,---,0.00,VWS V14.01,2013-06-26 05:58:00,
2013-06-26 02:03:00,70.0,68.2,27.99,NE,45,0.0,0.0,94,0.00,,---,0.00,VWS V14.01,2013-06-26 06:03:00,
2013-06-26 02:08:00,70.0,68.2,27.99,NE,45,0.0,0.0,94,0.00,,---,0.00,VWS V14.01,2013-06-26 06:08:00,
2013-06-26 02:13:00,69.8,68.0,27.99,NE,45,0.0,0.0,94,0.00,,---,0.00,VWS V14.01,2013-06-26 06:13:00,
2013-06-26 02:18:00,69.8,68.0,27.99,NE,45,0.0,0.0,94,0.00,,---,0.00,VWS V14.01,2013-06-26 06:18:00,
2013-06-26 02:23:00,69.8,68.0,27.96,NNE,22,0.0,0.0,94,0.00,,---,0.00,VWS V14.01,2013-06-26 06:23:00,
2013-06-26 02:28:00,69.6,68.1,27.96,North,0,0.0,0.0,95,0.00,,---,0.00,VWS V14.01,2013-06-26 06:28:00,
2013-06-26 02:33:00,69.6,68.1,27.96,North,0,0.0,0.0,95,0.00,,---,0.00,VWS V14.01,2013-06-26 06:33:00,
2013-06-26 02:38:00,69.6,68.1,27.96,North,0,0.0,0.0,95,0.00,,---,0.00,VWS V14.01,2013-06-26 06:38:00,
2013-06-26 02:43:00,69.6,68.1,27.96,NE,45,0.0,0.0,95,0.00,,---,0.00,VWS V14.01,2013-06-26 06:43:00,
2013-06-26 02:48:00,69.4,67.9,27.96,NE,45,0.0,0.0,95,0.00,,---,0.00,VWS V14.01,2013-06-26 06:48:00,
2013-06-26 02:53:00,69.4,67.9,27.96,NE,45,0.0,0.0,95,0.00,,---,0.00,VWS V14.01,2013-06-26 06:53:00,
2013-06-26 02:58:00,69.3,67.8,27.96,NE,45,0.0,0.0,95,0.00,,---,0.00,VWS V14.01,2013-06-26 06:58:00,
2013-06-26 03:03:00,69.3,67.8,27.96,NNW,338,0.0,0.0,95,0.00,,---,0.00,VWS V14.01,2013-06-26 07:03:00,
2013-06-26 03:08:00,69.3,67.8,27.96,NNW,338,0.0,0.0,95,0.00,,---,0.00,VWS V14.01,2013-06-26 07:08:00,
2013-06-26 03:13:00,69.1,67.6,27.96,NNW,338,0.0,0.0,95,0.00,,---,0.00,VWS V14.01,2013-06-26 07:13:00,
2013-06-26 03:18:00,69.3,67.8,27.96,North,0,0.0,0.0,95,0.00,,---,0.00,VWS V14.01,2013-06-26 07:18:00,
2013-06-26 03:23:00,69.3,67.8,27.96,North,0,0.0,0.0,95,0.00,,---,0.00,VWS V14.01,2013-06-26 07:23:00,
2013-06-26 03:28:00,69.3,67.8,27.96,North,0,0.0,0.0,95,0.00,,---,0.00,VWS V14.01,2013-06-26 07:28:00,
2013-06-26 03:33:00,69.3,67.8,27.96,North,0,0.0,0.0,95,0.00,,---,0.00,VWS V14.01,2013-06-26 07:33:00,
2013-06-26 03:38:00,69.3,67.8,27.96,North,0,0.0,0.0,95,0.00,,---,0.00,VWS V14.01,2013-06-26 07:38:00,
2013-06-26 03:43:00,69.3,67.8,27.96,North,0,0.0,0.0,95,0.00,,---,0.00,VWS V14.01,2013-06-26 07:43:00,
2013-06-26 03:48:00,69.3,67.8,27.96,WNW,292,0.0,0.0,95,0.00,,---,0.00,VWS V14.01,2013-06-26 07:48:00,
2013-06-26 03:54:00,69.3,67.8,27.96,WNW,292,0.0,0.0,95,0.00,,---,0.00,VWS V14.01,2013-06-26 07:54:00,
2013-06-26 03:59:00,69.3,67.8,27.96,WNW,292,0.0,0.0,95,0.00,,---,0.00,VWS V14.01,2013-06-26 07:59:00,
2013-06-26 04:04:00,69.3,67.8,27.96,WNW,292,0.0,0.0,95,0.00,,---,0.00,VWS V14.01,2013-06-26 08:04:00,
2013-06-26 04:09:00,69.3,67.8,27.96,WNW,292,0.0,0.0,95,0.00,,---,0.00,VWS V14.01,2013-06-26 08:09:00,
2013-06-26 04:14:00,69.3,67.8,27.96,WNW,292,0.0,0.0,95,0.00,,---,0.00,VWS V14.01,2013-06-26 08:14:00,
2013-06-26 04:19:00,69.3,67.8,27.96,WNW,292,0.0,0.0,95,0.00,,---,0.00,VWS V14.01,2013-06-26 08:19:00,
2013-06-26 04:24:00,69.1,67.6,27.96,WNW,292,0.0,0.0,95,0.00,,---,0.00,VWS V14.01,2013-06-26 08:24:00,
2013-06-26 04:29:00,69.3,68.1,27.96,WNW,292,0.0,0.0,96,0.00,,---,0.00,VWS V14.01,2013-06-26 08:29:00,
2013-06-26 04:34:00,69.1,67.9,27.96,WNW,292,0.0,0.0,96,0.00,,---,0.00,VWS V14.01,2013-06-26 08:34:00,
2013-06-26 04:39:00,69.1,67.9,27.96,WNW,292,0.0,0.0,96,0.00,,---,0.00,VWS V14.01,2013-06-26 08:39:00,
2013-06-26 04:44:00,69.1,67.6,27.96,WNW,292,0.0,0.0,95,0.00,,---,0.00,VWS V14.01,2013-06-26 08:44:00,
2013-06-26 04:49:00,68.9,67.4,27.96,WNW,292,0.0,0.0,95,0.00,,---,0.00,VWS V14.01,2013-06-26 08:49:00,
2013-06-26 04:54:00,68.9,67.7,27.96,WNW,292,0.0,0.0,96,0.00,,---,0.00,VWS V14.01,2013-06-26 08:54:00,
2013-06-26 04:59:00,68.9,67.7,27.96,WNW,292,0.0,0.0,96,0.00,,---,0.00,VWS V14.01,2013-06-26 08:59:00,
2013-06-26 05:04:00,68.9,67.7,27.96,WNW,292,0.0,0.0,96,0.00,,---,0.00,VWS V14.01,2013-06-26 09:04:00,
2013-06-26 05:09:00,68.7,67.5,27.96,WNW,292,0.0,0.0,96,0.00,,---,0.00,VWS V14.01,2013-06-26 09:09:00,
2013-06-26 05:14:00,68.9,67.7,27.96,WNW,292,0.0,0.0,96,0.00,,---,0.00,VWS V14.01,2013-06-26 09:14:00,
2013-06-26 05:19:00,68.9,67.7,27.96,WSW,248,1.1,1.1,96,0.00,,---,0.00,VWS V14.01,2013-06-26 09:19:00,
2013-06-26 05:24:00,68.9,67.7,27.96,WNW,292,0.0,0.0,96,0.00,,---,0.00,VWS V14.01,2013-06-26 09:24:00,
2013-06-26 05:29:00,68.9,67.7,27.96,WNW,292,0.0,0.0,96,0.00,,---,0.00,VWS V14.01,2013-06-26 09:29:00,
2013-06-26 05:34:00,68.9,67.7,27.96,WNW,292,0.0,0.0,96,0.00,,---,0.00,VWS V14.01,2013-06-26 09:34:00,
2013-06-26 05:39:00,68.9,67.7,27.96,WNW,292,0.0,0.0,96,0.00,,---,0.00,VWS V14.01,2013-06-26 09:39:00,
2013-06-26 05:44:00,68.9,67.7,27.96,WNW,292,0.0,0.0,96,0.00,,---,0.00,VWS V14.01,2013-06-26 09:44:00,
2013-06-26 05:49:00,69.1,67.9,27.96,WNW,292,0.0,0.0,96,0.00,,---,0.00,VWS V14.01,2013-06-26 09:49:00,
2013-06-26 05:54:00,69.3,68.1,27.99,WNW,292,0.0,0.0,96,0.00,,---,0.00,VWS V14.01,2013-06-26 09:54:00,
2013-06-26 05:59:00,69.3,68.1,27.99,WNW,292,0.0,0.0,96,0.00,,---,0.00,VWS V14.01,2013-06-26 09:59:00,
2013-06-26 06:04:00,69.3,68.1,27.99,WNW,292,0.0,0.0,96,0.00,,---,0.00,VWS V14.01,2013-06-26 10:04:00,
2013-06-26 06:09:00,69.1,67.9,27.99,WNW,292,0.0,0.0,96,0.00,,---,0.00,VWS V14.01,2013-06-26 10:09:00,
2013-06-26 06:14:00,69.1,67.9,27.99,WNW,292,0.0,0.0,96,0.00,,---,0.00,VWS V14.01,2013-06-26 10:14:00,
2013-06-26 06:19:00,68.9,67.7,27.99,WNW,292,0.0,0.0,96,0.00,,---,0.00,VWS V14.01,2013-06-26 10:19:00,
2013-06-26 06:24:00,68.7,67.5,27.99,WNW,292,0.0,0.0,96,0.00,,---,0.00,VWS V14.01,2013-06-26 10:24:00,
2013-06-26 06:29:00,68.7,67.5,27.99,WNW,292,0.0,0.0,96,0.00,,---,0.00,VWS V14.01,2013-06-26 10:29:00,
2013-06-26 06:34:00,68.7,67.5,27.99,WNW,292,0.0,0.0,96,0.00,,---,0.00,VWS V14.01,2013-06-26 10:34:00,
2013-06-26 06:39:00,68.7,67.5,27.99,WNW,292,0.0,0.0,96,0.00,,---,0.00,VWS V14.01,2013-06-26 10:39:00,
2013-06-26 06:44:00,68.7,67.5,27.99,WNW,292,0.0,0.0,96,0.00,,---,0.00,VWS V14.01,2013-06-26 10:44:00,
2013-06-26 06:49:00,68.7,67.5,27.99,WNW,292,0.0,0.0,96,0.00,,---,0.00,VWS V14.01,2013-06-26 10:49:00,
2013-06-26 06:54:00,68.7,67.5,27.99,WNW,292,0.0,0.0,96,0.00,,---,0.00,VWS V14.01,2013-06-26 10:54:00,
2013-06-26 06:59:00,68.7,67.5,27.99,WNW,292,0.0,0.0,96,0.00,,---,0.00,VWS V14.01,2013-06-26 10:59:00,
2013-06-26 07:04:00,68.9,67.7,27.99,WNW,292,0.0,0.0,96,0.00,,---,0.00,VWS V14.01,2013-06-26 11:04:00,
2013-06-26 07:09:00,68.9,67.7,27.99,WNW,292,0.0,0.0,96,0.00,,---,0.00,VWS V14.01,2013-06-26 11:09:00,
2013-06-26 07:14:00,69.1,67.9,27.99,WNW,292,0.0,0.0,96,0.00,,---,0.00,VWS V14.01,2013-06-26 11:14:00,
2013-06-26 07:19:00,69.1,67.9,27.99,WNW,292,0.0,0.0,96,0.00,,---,0.00,VWS V14.01,2013-06-26 11:19:00,
2013-06-26 07:24:00,69.3,68.1,27.99,WNW,292,0.0,0.0,96,0.00,,---,0.00,VWS V14.01,2013-06-26 11:24:00,
2013-06-26 07:29:00,69.6,68.4,27.99,WNW,292,0.0,0.0,96,0.00,,---,0.00,VWS V14.01,2013-06-26 11:29:00,
2013-06-26 07:34:00,69.6,68.4,27.99,WNW,292,0.0,0.0,96,0.00,,---,0.00,VWS V14.01,2013-06-26 11:34:00,
2013-06-26 07:39:00,70.0,68.8,27.99,WNW,292,0.0,0.0,96,0.00,,---,0.00,VWS V14.01,2013-06-26 11:39:00,
2013-06-26 07:44:00,70.2,69.0,27.99,WNW,292,0.0,0.0,96,0.00,,---,0.00,VWS V14.01,2013-06-26 11:44:00,
2013-06-26 07:49:00,70.5,69.3,27.99,WNW,292,0.0,0.0,96,0.00,,---,0.00,VWS V14.01,2013-06-26 11:49:00,
2013-06-26 07:54:00,70.7,69.5,28.02,WNW,292,0.0,0.0,96,0.00,,---,0.00,VWS V14.01,2013-06-26 11:54:00,
2013-06-26 07:59:00,70.9,69.7,28.02,WNW,292,0.0,0.0,96,0.00,,---,0.00,VWS V14.01,2013-06-26 11:59:00,
2013-06-26 08:04:00,71.2,69.7,28.02,WNW,292,0.0,0.0,95,0.00,,---,0.00,VWS V14.01,2013-06-26 12:04:00,
2013-06-26 08:09:00,71.6,70.1,28.02,WNW,292,0.0,0.0,95,0.00,,---,0.00,VWS V14.01,2013-06-26 12:09:00,
2013-06-26 08:14:00,71.8,70.3,28.02,WNW,292,0.0,0.0,95,0.00,,---,0.00,VWS V14.01,2013-06-26 12:14:00,
2013-06-26 08:20:00,72.0,70.4,28.02,WNW,292,0.0,0.0,95,0.00,,---,0.00,VWS V14.01,2013-06-26 12:20:00,
2013-06-26 08:25:00,72.1,70.3,28.02,WNW,292,0.0,0.0,94,0.00,,---,0.00,VWS V14.01,2013-06-26 12:25:00,
2013-06-26 08:30:00,72.3,70.5,28.02,WNW,292,0.0,0.0,94,0.00,,---,0.00,VWS V14.01,2013-06-26 12:30:00,
2013-06-26 08:35:00,72.5,70.7,28.02,NW,315,0.0,0.0,94,0.00,,---,0.00,VWS V14.01,2013-06-26 12:35:00,
2013-06-26 08:40:00,72.9,71.0,28.02,WNW,292,0.0,0.0,94,0.00,,---,0.00,VWS V14.01,2013-06-26 12:40:00,
2013-06-26 08:45:00,73.2,71.4,28.02,West,270,0.0,1.1,94,0.00,,---,0.00,VWS V14.01,2013-06-26 12:45:00,
2013-06-26 08:50:00,73.6,71.4,28.02,South,180,0.0,0.0,93,0.00,,---,0.00,VWS V14.01,2013-06-26 12:50:00,
2013-06-26 08:55:00,73.8,71.3,28.02,WNW,292,0.0,0.0,92,0.00,,---,0.00,VWS V14.01,2013-06-26 12:55:00,
2013-06-26 09:00:00,73.9,71.5,28.02,SSW,202,0.9,0.9,92,0.00,,---,0.00,VWS V14.01,2013-06-26 13:00:00,
2013-06-26 09:05:00,74.3,71.5,28.02,SSW,202,0.0,0.0,91,0.00,,---,0.00,VWS V14.01,2013-06-26 13:05:00,
2013-06-26 09:10:00,74.3,71.5,28.02,SSW,202,0.0,0.0,91,0.00,,---,0.00,VWS V14.01,2013-06-26 13:10:00,
2013-06-26 09:15:00,74.5,71.7,28.02,SSW,202,0.0,0.0,91,0.00,,---,0.00,VWS V14.01,2013-06-26 13:15:00,
2013-06-26 09:20:00,74.8,71.7,28.02,SSW,202,0.0,0.0,90,0.00,,---,0.00,VWS V14.01,2013-06-26 13:20:00,
2013-06-26 09:26:00,75.4,71.9,28.02,SSW,202,0.9,0.9,89,0.00,,---,0.00,VWS V14.01,2013-06-26 13:26:00,
2013-06-26 09:30:00,75.6,72.1,28.02,SSW,202,0.0,0.0,89,0.00,,---,0.00,VWS V14.01,2013-06-26 13:30:00,
2013-06-26 09:35:00,76.3,72.5,28.02,SSW,202,0.0,0.0,88,0.00,,---,0.00,VWS V14.01,2013-06-26 13:35:00,
2013-06-26 09:41:00,77.0,72.5,28.02,WSW,248,1.6,1.6,86,0.00,,---,0.00,VWS V14.01,2013-06-26 13:41:00,
2013-06-26 09:46:00,77.5,72.7,28.02,SSW,202,1.3,1.3,85,0.00,,---,0.00,VWS V14.01,2013-06-26 13:46:00,
2013-06-26 09:51:00,77.5,72.7,27.99,SSW,202,0.0,1.3,85,0.00,,---,0.00,VWS V14.01,2013-06-26 13:51:00,
2013-06-26 09:56:00,78.4,72.5,27.99,SSW,202,0.9,2.2,82,0.00,,---,0.00,VWS V14.01,2013-06-26 13:56:00,
2013-06-26 10:01:00,78.4,72.1,27.99,WSW,248,0.0,1.1,81,0.00,,---,0.00,VWS V14.01,2013-06-26 14:01:00,
2013-06-26 10:06:00,78.6,72.3,28.02,SSW,202,1.3,1.6,81,0.00,,---,0.00,VWS V14.01,2013-06-26 14:06:00,
2013-06-26 10:11:00,78.6,71.9,28.02,SSW,202,2.0,2.0,80,0.00,,---,0.00,VWS V14.01,2013-06-26 14:11:00,
2013-06-26 10:16:00,78.8,71.4,28.02,WSW,248,2.0,2.0,78,0.00,,---,0.00,VWS V14.01,2013-06-26 14:16:00,
2013-06-26 10:21:00,79.0,71.5,27.99,WNW,292,0.9,1.1,78,0.00,,---,0.00,VWS V14.01,2013-06-26 14:21:00,
2013-06-26 10:26:00,79.9,72.4,27.99,SSE,158,0.0,2.0,78,0.00,,---,0.00,VWS V14.01,2013-06-26 14:26:00,
2013-06-26 10:31:00,80.6,72.7,27.99,South,180,0.0,0.0,77,0.00,,---,0.00,VWS V14.01,2013-06-26 14:31:00,
2013-06-26 10:36:00,81.1,72.9,27.99,WSW,248,0.9,1.1,76,0.00,,---,0.00,VWS V14.01,2013-06-26 14:36:00,
2013-06-26 10:42:00,81.0,71.9,27.99,NW,315,0.0,1.6,74,0.00,,---,0.00,VWS V14.01,2013-06-26 14:42:00,
2013-06-26 10:47:00,81.5,72.8,27.99,WSW,248,1.1,1.1,75,0.00,,---,0.00,VWS V14.01,2013-06-26 14:47:00,
2013-06-26 10:52:00,80.6,71.2,28.02,SW,225,0.0,0.9,73,0.00,,---,0.00,VWS V14.01,2013-06-26 14:52:00,
2013-06-26 10:57:00,79.9,71.2,28.02,WNW,292,0.0,0.9,75,0.00,,---,0.00,VWS V14.01,2013-06-26 14:57:00,
2013-06-26 11:02:00,80.1,71.8,28.02,SSW,202,1.3,1.3,76,0.00,,---,0.00,VWS V14.01,2013-06-26 15:02:00,
2013-06-26 11:07:00,79.9,71.2,27.99,SSE,158,1.1,2.2,75,0.00,,---,0.00,VWS V14.01,2013-06-26 15:07:00,
2013-06-26 11:12:00,80.8,72.1,27.99,East,90,1.3,1.6,75,0.00,,---,0.00,VWS V14.01,2013-06-26 15:12:00,
2013-06-26 11:17:00,80.6,71.6,27.99,NNW,338,0.9,0.9,74,0.00,,---,0.00,VWS V14.01,2013-06-26 15:17:00,
2013-06-26 11:22:00,80.1,71.0,27.99,SSW,202,0.0,0.0,74,0.00,,---,0.00,VWS V14.01,2013-06-26 15:22:00,
2013-06-26 11:27:00,80.8,72.1,27.99,SSW,202,1.3,1.3,75,0.00,,---,0.00,VWS V14.01,2013-06-26 15:27:00,
2013-06-26 11:32:00,81.3,72.2,27.99,SSW,202,0.0,1.3,74,0.00,,---,0.00,VWS V14.01,2013-06-26 15:32:00,
2013-06-26 11:37:00,81.5,71.6,28.02,ENE,68,0.0,0.0,72,0.00,,---,0.00,VWS V14.01,2013-06-26 15:37:00,
2013-06-26 11:42:00,82.8,72.8,28.02,SW,225,0.9,2.0,72,0.00,,---,0.00,VWS V14.01,2013-06-26 15:42:00,
2013-06-26 11:47:00,83.1,72.3,28.02,WSW,248,0.9,1.6,70,0.00,,---,0.00,VWS V14.01,2013-06-26 15:47:00,
2013-06-26 11:52:00,83.1,71.9,27.99,SSW,202,1.1,1.3,69,0.00,,---,0.00,VWS V14.01,2013-06-26 15:52:00,
2013-06-26 11:58:00,83.3,72.9,27.99,WSW,248,0.0,0.0,71,0.00,,---,0.00,VWS V14.01,2013-06-26 15:58:00,
2013-06-26 12:03:00,85.1,73.4,27.99,SSW,202,1.6,1.6,68,0.00,,---,0.00,VWS V14.01,2013-06-26 16:03:00,
2013-06-26 12:08:00,85.1,72.9,27.99,SSW,202,0.0,2.0,67,0.00,,---,0.00,VWS V14.01,2013-06-26 16:08:00,
2013-06-26 12:13:00,84.9,72.8,27.99,SSW,202,1.1,2.2,67,0.00,,---,0.00,VWS V14.01,2013-06-26 16:13:00,
2013-06-26 12:18:00,84.9,71.8,27.99,SSW,202,1.6,1.6,65,0.00,,---,0.00,VWS V14.01,2013-06-26 16:18:00,
2013-06-26 12:23:00,84.6,72.0,27.99,South,180,0.0,3.1,66,0.00,,---,0.00,VWS V14.01,2013-06-26 16:23:00,
2013-06-26 12:28:00,84.6,71.5,27.99,SSW,202,0.0,0.0,65,0.00,,---,0.00,VWS V14.01,2013-06-26 16:28:00,
2013-06-26 12:33:00,84.9,71.8,27.99,SSW,202,0.0,3.1,65,0.00,,---,0.00,VWS V14.01,2013-06-26 16:33:00,
2013-06-26 12:38:00,84.2,71.2,27.99,SSW,202,0.9,0.9,65,0.00,,---,0.00,VWS V14.01,2013-06-26 16:38:00,
2013-06-26 12:43:00,85.6,72.1,27.99,SSW,202,2.0,2.0,64,0.00,,---,0.00,VWS V14.01,2013-06-26 16:43:00,
2013-06-26 12:48:00,86.0,72.4,27.99,SSW,202,2.7,2.7,64,0.00,,---,0.00,VWS V14.01,2013-06-26 16:48:00,
2013-06-26 12:53:00,86.7,72.6,27.99,SSW,202,1.1,1.1,63,0.00,,---,0.00,VWS V14.01,2013-06-26 16:53:00,
2013-06-26 12:58:00,87.4,72.3,27.99,SSW,202,1.1,1.1,61,0.00,,---,0.00,VWS V14.01,2013-06-26 16:58:00,
2013-06-26 13:03:00,87.1,72.5,27.99,WSW,248,0.0,1.1,62,0.00,,---,0.00,VWS V14.01,2013-06-26 17:03:00,
2013-06-26 13:08:00,86.0,71.9,27.99,WSW,248,0.0,0.0,63,0.00,,---,0.00,VWS V14.01,2013-06-26 17:08:00,
2013-06-26 13:13:00,88.0,73.3,27.99,SSW,202,2.0,2.0,62,0.00,,---,0.00,VWS V14.01,2013-06-26 17:13:00,
2013-06-26 13:18:00,87.8,72.2,27.99,SSW,202,1.3,1.6,60,0.00,,---,0.00,VWS V14.01,2013-06-26 17:18:00,
2013-06-26 13:23:00,88.7,73.0,27.96,South,180,0.0,1.6,60,0.00,,---,0.00,VWS V14.01,2013-06-26 17:23:00,
2013-06-26 13:28:00,88.5,71.9,27.96,SSW,202,2.5,2.5,58,0.00,,---,0.00,VWS V14.01,2013-06-26 17:28:00,
2013-06-26 13:34:00,87.8,71.2,27.96,SSW,202,0.0,1.3,58,0.00,,---,0.00,VWS V14.01,2013-06-26 17:34:00,
2013-06-26 13:39:00,87.8,72.2,27.96,SSE,158,0.0,0.9,60,0.00,,---,0.00,VWS V14.01,2013-06-26 17:39:00,
2013-06-26 13:44:00,88.9,72.2,27.96,SSW,202,2.5,2.5,58,0.00,,---,0.00,VWS V14.01,2013-06-26 17:44:00,
2013-06-26 13:49:00,88.2,71.5,27.96,SSW,202,0.9,1.6,58,0.00,,---,0.00,VWS V14.01,2013-06-26 17:49:00,
2013-06-26 13:54:00,87.4,70.3,27.96,SSW,202,1.3,1.6,57,0.00,,---,0.00,VWS V14.01,2013-06-26 17:54:00,
2013-06-26 13:59:00,88.2,72.5,27.96,SW,225,2.0,2.5,60,0.00,,---,0.00,VWS V14.01,2013-06-26 17:59:00,
2013-06-26 14:04:00,87.6,72.0,27.96,NW,315,0.0,0.0,60,0.00,,---,0.00,VWS V14.01,2013-06-26 18:04:00,
2013-06-26 14:09:00,88.5,72.4,27.96,West,270,0.9,1.1,59,0.00,,---,0.00,VWS V14.01,2013-06-26 18:09:00,
2013-06-26 14:14:00,87.1,71.5,27.96,SSE,158,0.0,1.3,60,0.00,,---,0.00,VWS V14.01,2013-06-26 18:14:00,
2013-06-26 14:19:00,87.3,72.2,27.96,South,180,1.3,2.0,61,0.00,,---,0.00,VWS V14.01,2013-06-26 18:19:00,
2013-06-26 14:24:00,86.9,71.3,27.96,WSW,248,0.0,0.0,60,0.00,,---,0.00,VWS V14.01,2013-06-26 18:24:00,
2013-06-26 14:29:00,86.7,72.2,27.96,SW,225,0.0,1.1,62,0.00,,---,0.00,VWS V14.01,2013-06-26 18:29:00,
2013-06-26 14:34:00,87.4,72.3,27.96,SSW,202,0.0,0.0,61,0.00,,---,0.00,VWS V14.01,2013-06-26 18:34:00,
2013-06-26 14:39:00,88.0,71.9,27.96,WSW,248,1.3,1.3,59,0.00,,---,0.00,VWS V14.01,2013-06-26 18:39:00,
2013-06-26 14:44:00,88.2,71.5,27.96,SSE,158,0.0,0.0,58,0.00,,---,0.00,VWS V14.01,2013-06-26 18:44:00,
2013-06-26 14:49:00,88.3,71.7,27.96,SW,225,0.0,0.0,58,0.00,,---,0.00,VWS V14.01,2013-06-26 18:49:00,
2013-06-26 14:54:00,88.0,69.8,27.93,SSW,202,1.3,2.5,55,0.00,,---,0.00,VWS V14.01,2013-06-26 18:54:00,
2013-06-26 14:59:00,87.6,70.0,27.93,South,180,0.0,2.0,56,0.00,,---,0.00,VWS V14.01,2013-06-26 18:59:00,
2013-06-26 15:04:00,87.6,69.5,27.93,SW,225,1.1,1.3,55,0.00,,---,0.00,VWS V14.01,2013-06-26 19:04:00,
2013-06-26 15:09:00,88.2,70.0,27.93,SW,225,0.0,0.0,55,0.00,,---,0.00,VWS V14.01,2013-06-26 19:09:00,
2013-06-26 15:15:00,88.5,71.3,27.93,SSW,202,0.0,2.5,57,0.00,,---,0.00,VWS V14.01,2013-06-26 19:15:00,
2013-06-26 15:20:00,88.0,70.8,27.93,WSW,248,1.3,1.3,57,0.00,,---,0.00,VWS V14.01,2013-06-26 19:20:00,
2013-06-26 15:25:00,88.3,71.2,27.93,WNW,292,0.0,1.1,57,0.00,,---,0.00,VWS V14.01,2013-06-26 19:25:00,
2013-06-26 15:30:00,87.4,69.8,27.93,SSE,158,1.1,1.3,56,0.00,,---,0.00,VWS V14.01,2013-06-26 19:30:00,
2013-06-26 15:35:00,86.7,70.2,27.93,WSW,248,2.0,2.0,58,0.00,,---,0.00,VWS V14.01,2013-06-26 19:35:00,
2013-06-26 15:40:00,86.2,69.2,27.93,South,180,0.9,1.3,57,0.00,,---,0.00,VWS V14.01,2013-06-26 19:40:00,
2013-06-26 15:45:00,85.5,69.5,27.93,WNW,292,0.9,0.9,59,0.00,,---,0.00,VWS V14.01,2013-06-26 19:45:00,
2013-06-26 15:50:00,86.2,70.2,27.93,South,180,0.0,0.0,59,0.00,,---,0.00,VWS V14.01,2013-06-26 19:50:00,
2013-06-26 15:55:00,87.1,71.5,27.93,South,180,1.3,1.6,60,0.00,,---,0.00,VWS V14.01,2013-06-26 19:55:00,
2013-06-26 16:00:00,87.3,71.2,27.93,South,180,0.0,1.3,59,0.00,,---,0.00,VWS V14.01,2013-06-26 20:00:00,
2013-06-26 16:05:00,87.1,71.0,27.93,West,270,0.0,0.0,59,0.00,,---,0.00,VWS V14.01,2013-06-26 20:05:00,
2013-06-26 16:11:00,88.2,72.5,27.93,SSW,202,1.1,2.0,60,0.00,,---,0.00,VWS V14.01,2013-06-26 20:11:00,
2013-06-26 16:16:00,88.0,69.8,27.93,SW,225,1.3,2.7,55,0.00,,---,0.00,VWS V14.01,2013-06-26 20:16:00,
2013-06-26 16:21:00,85.6,68.7,27.93,SSW,202,0.0,0.0,57,0.00,,---,0.00,VWS V14.01,2013-06-26 20:21:00,
2013-06-26 16:26:00,86.4,70.8,27.93,WSW,248,0.0,0.9,60,0.00,,---,0.00,VWS V14.01,2013-06-26 20:26:00,
2013-06-26 16:31:00,87.4,72.3,27.93,SSW,202,0.0,1.1,61,0.00,,---,0.00,VWS V14.01,2013-06-26 20:31:00,
2013-06-26 16:36:00,86.0,70.5,27.93,WSW,248,0.9,1.3,60,0.00,,---,0.00,VWS V14.01,2013-06-26 20:36:00,
2013-06-26 16:41:00,86.4,70.8,27.93,WNW,292,0.0,1.3,60,0.00,,---,0.00,VWS V14.01,2013-06-26 20:41:00,
2013-06-26 16:46:00,87.4,71.9,27.93,WSW,248,0.0,0.0,60,0.00,,---,0.00,VWS V14.01,2013-06-26 20:46:00,
2013-06-26 16:51:00,87.1,71.5,27.93,SSE,158,0.0,0.0,60,0.00,,---,0.00,VWS V14.01,2013-06-26 20:51:00,
2013-06-26 16:56:00,85.1,70.2,27.93,SSW,202,0.0,0.0,61,0.00,,---,0.00,VWS V14.01,2013-06-26 20:56:00,
2013-06-26 17:01:00,84.6,70.1,27.93,SSW,202,0.0,0.9,62,0.00,,---,0.00,VWS V14.01,2013-06-26 21:01:00,
2013-06-26 17:06:00,85.3,71.3,27.93,South,180,0.0,0.0,63,0.00,,---,0.00,VWS V14.01,2013-06-26 21:06:00,
2013-06-26 17:11:00,85.3,71.3,27.90,South,180,0.9,0.9,63,0.00,,---,0.00,VWS V14.01,2013-06-26 21:11:00,
2013-06-26 17:16:00,85.3,71.3,27.90,SW,225,0.0,0.0,63,0.00,,---,0.00,VWS V14.01,2013-06-26 21:16:00,
2013-06-26 17:21:00,85.6,72.1,27.90,South,180,0.9,1.6,64,0.00,,---,0.00,VWS V14.01,2013-06-26 21:21:00,
2013-06-26 17:26:00,84.9,70.5,27.90,West,270,1.3,1.6,62,0.00,,---,0.00,VWS V14.01,2013-06-26 21:26:00,
2013-06-26 17:31:00,84.2,70.7,27.90,WSW,248,0.0,0.0,64,0.00,,---,0.00,VWS V14.01,2013-06-26 21:31:00,
2013-06-26 17:36:00,84.4,71.3,27.90,WSW,248,0.0,0.0,65,0.00,,---,0.00,VWS V14.01,2013-06-26 21:36:00,
2013-06-26 17:41:00,84.0,71.4,27.90,SSE,158,2.2,2.2,66,0.00,,---,0.00,VWS V14.01,2013-06-26 21:41:00,
2013-06-26 17:46:00,83.7,70.7,27.90,SSW,202,0.0,0.9,65,0.00,,---,0.00,VWS V14.01,2013-06-26 21:46:00,
2013-06-26 17:51:00,83.3,70.8,27.90,WSW,248,0.0,0.0,66,0.00,,---,0.00,VWS V14.01,2013-06-26 21:51:00,
2013-06-26 17:56:00,82.9,70.9,27.90,SSW,202,0.0,0.9,67,0.00,,---,0.00,VWS V14.01,2013-06-26 21:56:00,
2013-06-26 18:02:00,83.1,71.9,27.90,SW,225,0.0,0.0,69,0.00,,---,0.00,VWS V14.01,2013-06-26 22:02:00,
2013-06-26 18:07:00,82.6,71.0,27.88,South,180,0.9,0.9,68,0.00,,---,0.00,VWS V14.01,2013-06-26 22:07:00,
2013-06-26 18:08:00,82.4,70.8,27.88,SW,225,0.0,0.0,68,0.00,,---,0.00,VWS V14.01,2013-06-26 22:08:00,
2013-06-26 18:13:00,82.4,70.8,27.88,WSW,248,0.0,0.0,68,0.00,,---,0.00,VWS V14.01,2013-06-26 22:13:00,
2013-06-26 18:18:00,82.0,70.9,27.88,WSW,248,0.0,0.0,69,0.00,,---,0.00,VWS V14.01,2013-06-26 22:18:00,
2013-06-26 18:23:00,81.9,71.1,27.88,West,270,0.0,0.0,70,0.00,,---,0.00,VWS V14.01,2013-06-26 22:23:00,
2013-06-26 18:28:00,81.9,71.5,27.88,WSW,248,0.0,0.9,71,0.00,,---,0.00,VWS V14.01,2013-06-26 22:28:00,
2013-06-26 18:33:00,81.7,71.4,27.88,WSW,248,0.0,1.3,71,0.00,,---,0.00,VWS V14.01,2013-06-26 22:33:00,
2013-06-26 18:38:00,81.5,71.2,27.88,SSW,202,0.0,0.9,71,0.00,,---,0.00,VWS V14.01,2013-06-26 22:38:00,
2013-06-26 18:43:00,81.1,70.8,27.88,WSW,248,0.0,0.0,71,0.00,,---,0.00,VWS V14.01,2013-06-26 22:43:00,
2013-06-26 18:48:00,81.1,71.3,27.88,SE,135,1.1,1.1,72,0.00,,---,0.00,VWS V14.01,2013-06-26 22:48:00,
2013-06-26 18:53:00,81.1,71.3,27.88,SW,225,0.0,0.0,72,0.00,,---,0.00,VWS V14.01,2013-06-26 22:53:00,
2013-06-26 18:58:00,80.8,70.9,27.88,WSW,248,0.0,0.0,72,0.00,,---,0.00,VWS V14.01,2013-06-26 22:58:00,
2013-06-26 19:03:00,80.6,71.2,27.88,WSW,248,0.0,0.0,73,0.00,,---,0.00,VWS V14.01,2013-06-26 23:03:00,
2013-06-26 19:08:00,80.4,71.4,27.88,WSW,248,0.0,0.9,74,0.00,,---,0.00,VWS V14.01,2013-06-26 23:08:00,
2013-06-26 19:13:00,80.2,70.8,27.88,SSE,158,0.0,0.0,73,0.00,,---,0.00,VWS V14.01,2013-06-26 23:13:00,
2013-06-26 19:19:00,80.2,71.2,27.88,SSE,158,0.0,0.0,74,0.00,,---,0.00,VWS V14.01,2013-06-26 23:19:00,
2013-06-26 19:24:00,80.1,71.0,27.88,SSE,158,0.0,0.0,74,0.00,,---,0.00,VWS V14.01,2013-06-26 23:24:00,
2013-06-26 19:29:00,79.7,71.1,27.88,SSE,158,0.0,0.0,75,0.00,,---,0.00,VWS V14.01,2013-06-26 23:29:00,
2013-06-26 19:34:00,79.5,70.9,27.88,SSE,158,0.0,0.0,75,0.00,,---,0.00,VWS V14.01,2013-06-26 23:34:00,
2013-06-26 19:39:00,79.3,70.7,27.88,SE,135,0.0,0.0,75,0.00,,---,0.00,VWS V14.01,2013-06-26 23:39:00,
2013-06-26 19:44:00,79.2,70.9,27.88,SE,135,0.0,0.0,76,0.00,,---,0.00,VWS V14.01,2013-06-26 23:44:00,
2013-06-26 19:49:00,79.0,70.8,27.88,SSE,158,0.0,0.0,76,0.00,,---,0.00,VWS V14.01,2013-06-26 23:49:00,
2013-06-26 19:54:00,78.8,70.6,27.88,SSE,158,0.0,0.0,76,0.00,,---,0.00,VWS V14.01,2013-06-26 23:54:00,
2013-06-26 19:59:00,78.4,70.6,27.88,SE,135,0.0,0.0,77,0.00,,---,0.00,VWS V14.01,2013-06-26 23:59:00,
2013-06-26 20:04:00,78.3,70.8,27.88,SE,135,0.0,0.0,78,0.00,,---,0.00,VWS V14.01,2013-06-27 00:04:00,
2013-06-26 20:09:00,78.1,70.7,27.88,SE,135,0.0,0.0,78,0.00,,---,0.00,VWS V14.01,2013-06-27 00:09:00,
2013-06-26 20:15:00,77.7,70.3,27.88,NE,45,0.0,0.0,78,0.00,,---,0.00,VWS V14.01,2013-06-27 00:15:00,
2013-06-26 20:20:00,77.5,70.1,27.88,SSE,158,0.0,0.0,78,0.00,,---,0.00,VWS V14.01,2013-06-27 00:20:00,
2013-06-26 20:25:00,77.5,70.1,27.88,South,180,0.0,0.0,78,0.00,,---,0.00,VWS V14.01,2013-06-27 00:25:00,
2013-06-26 20:30:00,77.4,70.0,27.88,SSE,158,0.0,0.0,78,0.00,,---,0.00,VWS V14.01,2013-06-27 00:30:00,
2013-06-26 20:35:00,77.2,69.8,27.88,SSE,158,0.0,0.0,78,0.00,,---,0.00,VWS V14.01,2013-06-27 00:35:00,
2013-06-26 20:40:00,77.2,69.8,27.88,SSE,158,0.0,0.0,78,0.00,,---,0.00,VWS V14.01,2013-06-27 00:40:00,
2013-06-26 20:45:00,77.0,69.6,27.88,SSE,158,0.0,0.0,78,0.00,,---,0.00,VWS V14.01,2013-06-27 00:45:00,
2013-06-26 20:50:00,77.0,70.0,27.88,SSW,202,0.0,0.0,79,0.00,,---,0.00,VWS V14.01,2013-06-27 00:50:00,
2013-06-26 20:55:00,77.0,70.0,27.88,SW,225,0.0,0.0,79,0.00,,---,0.00,VWS V14.01,2013-06-27 00:55:00,
2013-06-26 21:00:00,76.8,69.8,27.88,SW,225,0.0,0.0,79,0.00,,---,0.00,VWS V14.01,2013-06-27 01:00:00,
2013-06-26 21:05:00,76.8,69.8,27.88,SW,225,0.0,0.0,79,0.00,,---,0.00,VWS V14.01,2013-06-27 01:05:00,
2013-06-26 21:10:00,76.8,70.2,27.88,SW,225,0.0,0.0,80,0.00,,---,0.00,VWS V14.01,2013-06-27 01:10:00,
2013-06-26 21:16:00,76.6,70.0,27.88,SE,135,0.0,0.0,80,0.00,,---,0.00,VWS V14.01,2013-06-27 01:16:00,
2013-06-26 21:21:00,76.6,70.0,27.88,SSE,158,0.0,0.9,80,0.00,,---,0.00,VWS V14.01,2013-06-27 01:21:00,
2013-06-26 21:26:00,76.5,69.8,27.88,SSE,158,0.0,0.0,80,0.00,,---,0.00,VWS V14.01,2013-06-27 01:26:00,
2013-06-26 21:31:00,76.3,69.7,27.88,SE,135,0.0,0.0,80,0.00,,---,0.00,VWS V14.01,2013-06-27 01:31:00,
2013-06-26 21:36:00,76.3,69.7,27.88,WSW,248,0.0,0.0,80,0.00,,---,0.00,VWS V14.01,2013-06-27 01:36:00,
2013-06-26 21:41:00,76.3,69.7,27.88,WSW,248,0.0,0.0,80,0.00,,---,0.00,VWS V14.01,2013-06-27 01:41:00,
2013-06-26 21:46:00,76.1,69.5,27.88,South,180,0.0,0.0,80,0.00,,---,0.00,VWS V14.01,2013-06-27 01:46:00,
2013-06-26 21:51:00,76.1,69.5,27.88,SSW,202,0.0,0.0,80,0.00,,---,0.00,VWS V14.01,2013-06-27 01:51:00,
2013-06-26 21:56:00,76.1,69.5,27.88,SSW,202,0.0,0.0,80,0.00,,---,0.00,VWS V14.01,2013-06-27 01:56:00,
2013-06-26 22:01:00,75.9,69.3,27.88,SE,135,0.0,0.0,80,0.00,,---,0.00,VWS V14.01,2013-06-27 02:01:00,
2013-06-26 22:06:00,75.9,69.3,27.88,SSW,202,0.0,0.0,80,0.00,,---,0.00,VWS V14.01,2013-06-27 02:06:00,
2013-06-26 22:11:00,75.9,69.7,27.88,SSW,202,0.0,0.0,81,0.00,,---,0.00,VWS V14.01,2013-06-27 02:11:00,
2013-06-26 22:16:00,75.9,69.7,27.88,SSW,202,0.9,0.9,81,0.00,,---,0.00,VWS V14.01,2013-06-27 02:16:00,
2013-06-26 22:21:00,75.9,69.7,27.88,SSW,202,1.3,1.3,81,0.00,,---,0.00,VWS V14.01,2013-06-27 02:21:00,
2013-06-26 22:26:00,75.9,69.7,27.88,WSW,248,0.0,0.0,81,0.00,,---,0.00,VWS V14.01,2013-06-27 02:26:00,
2013-06-26 22:32:00,75.9,69.7,27.88,South,180,0.0,0.0,81,0.00,,---,0.00,VWS V14.01,2013-06-27 02:32:00,
2013-06-26 22:37:00,75.7,69.5,27.88,South,180,1.6,1.6,81,0.00,,---,0.00,VWS V14.01,2013-06-27 02:37:00,
2013-06-26 22:42:00,75.6,69.3,27.88,WSW,248,1.6,1.6,81,0.00,,---,0.00,VWS V14.01,2013-06-27 02:42:00,
2013-06-26 22:47:00,75.6,69.3,27.88,South,180,0.9,1.1,81,0.00,,---,0.00,VWS V14.01,2013-06-27 02:47:00,
2013-06-26 22:52:00,75.6,69.7,27.88,SSW,202,0.0,0.0,82,0.00,,---,0.00,VWS V14.01,2013-06-27 02:52:00,
2013-06-26 22:57:00,75.6,69.3,27.88,West,270,0.0,0.0,81,0.00,,---,0.00,VWS V14.01,2013-06-27 02:57:00,
2013-06-26 23:02:00,75.6,69.3,27.88,WSW,248,0.0,0.0,81,0.00,,---,0.00,VWS V14.01,2013-06-27 03:02:00,
2013-06-26 23:03:00,75.6,69.7,27.88,WSW,248,0.0,0.0,82,0.00,,---,0.00,VWS V14.01,2013-06-27 03:03:00,
2013-06-26 23:08:00,75.6,69.7,27.90,SW,225,0.0,0.0,82,0.00,,---,0.00,VWS V14.01,2013-06-27 03:08:00,
2013-06-26 23:13:00,75.6,69.7,27.90,SSW,202,0.0,0.0,82,0.00,,---,0.00,VWS V14.01,2013-06-27 03:13:00,
2013-06-26 23:18:00,75.4,69.5,27.90,WSW,248,0.0,0.0,82,0.00,,---,0.00,VWS V14.01,2013-06-27 03:18:00,
2013-06-26 23:23:00,75.4,69.5,27.90,SSW,202,0.0,0.0,82,0.00,,---,0.00,VWS V14.01,2013-06-27 03:23:00,
2013-06-26 23:28:00,75.2,69.3,27.90,WNW,292,0.0,0.0,82,0.00,,---,0.00,VWS V14.01,2013-06-27 03:28:00,
2013-06-26 23:33:00,75.0,69.5,27.90,WNW,292,0.9,0.9,83,0.00,,---,0.00,VWS V14.01,2013-06-27 03:33:00,
2013-06-26 23:38:00,75.0,69.5,27.90,West,270,0.0,0.0,83,0.00,,---,0.00,VWS V14.01,2013-06-27 03:38:00,
2013-06-26 23:43:00,74.8,69.7,27.90,West,270,0.0,0.0,84,0.00,,---,0.00,VWS V14.01,2013-06-27 03:43:00,
2013-06-26 23:48:00,74.8,69.7,27.90,West,270,0.0,0.0,84,0.00,,---,0.00,VWS V14.01,2013-06-27 03:48:00,
2013-06-26 23:53:00,74.7,69.9,27.93,West,270,0.0,0.0,85,0.00,,---,0.00,VWS V14.01,2013-06-27 03:53:00,
2013-06-26 23:58:00,74.7,69.9,27.93,SSW,202,0.0,1.1,85,0.00,,---,0.00,VWS V14.01,2013-06-27 03:58:00,